Location: Hylvaty SDH
(49.9612°N, 16.4057°E)
Time: 11:45:14
(UTC+01:00)

Tiros 1 - Pass Details

Date: 05 October 2020
Orbit: 630 x 663 km, 48.4° (Epoch: 28 October)

Event Time Altitude Azimuth Distance (km) Brightness Sun altitude
Rises 14:53:21 0° 254° (WSW) 2,940 11.3 28.2°
Reaches altitude 10° 14:55:40 10° 252° (WSW) 2,037 10.7 27.9°
Maximum altitude 15:00:20 68° 170° (S) 699 8.1 27.5°
Drops below altitude 10° 15:05:04 10° 88° (E) 2,062 9.4 27.0°
Sets 15:07:26 0° 86° (E) 2,979 10.2 26.7°
